Starlink 31136

operational
NORAD ID: 58772 Int'l Des: 2024-011 Owner: SPXS Country: US Constellation: starlink
LEOCIRCULAR

About Starlink 31136

Description loading...

Live Position

Loading 3D Globe...

Upcoming Passes

Altitude History

Altitude vs Time

uPlot chart will show altitude changes over time

Two-Line Element Set

1 58772U 24011H 25258.01488604 .00000108 00000-0 15764-4 0 9996
2 58772 53.1600 109.6687 0001171 84.4665 275.6469 15.30195527 93364
Epoch: Sep 15, 2025 • Age: 19 hours

Current Status

Altitude 475.4 km
Velocity 7.63 km/s
Sub-Earth Point 20.80°N, 23.12°W
Launch Date Jan 14, 2024
Age 1.6 years
Type internet

Technical Details

Classification Payload
Mass 730.00 kg
Dry Mass 700.00 kg
Total Mass 730.00 kg
Length 0.30 m
Diameter 4.10 m
Span 29.00 m
Shape Box + pan
Manufacturer SPXS
Bus Type Starlink V2M
Phase Status In Orbit
Owner/State SPXS/US

Large Constellations

Loading constellations...